(305551) = 2005 XL9 = 2008 UJ119

Discovered at Kitt Peak on 2008-10-22 by Spacewatch.

Orbit

Orbit type: Main Belt

Note: WebGL enabled browser required.

epoch2023-02-25.0
epoch JD2460000.5
perihelion date2021-03-28.15778
perihelion JD2459301.65778
argument of perihelion (°)31.58112
ascending node (°)354.12748
inclination (°)3.84456
eccentricity0.0135727
perihelion distance (AU)2.1168462
Tisserand w.r.t. Jupiter3.7
ΔV w.r.t. Earth (km/sec)9.0
semimajor axis (AU)2.1459728
mean anomaly (°)219.10215
mean daily motion (°/day)0.31352160
aphelion distance (AU)2.175
period (years)3.14
P-vector [x]0.90089131
P-vector [y]0.38295525
P-vector [z]0.20430400
Q-vector [x]-0.43399054
Q-vector [y]0.80219162
Q-vector [z]0.41004978
absolute magnitude17.8
phase slope0.15
uncertainty0
referenceMPO 745323
observations used289
oppositions13
arc length (days)10696
first opposition used1994
last opposition used2023
residual rms (arc-secs)0.65
perturbers coarse indicatorM-v
perturbers precise indicator003Ek
first observation date used1994-03-05.0
last observation date used2023-06-17.0
computer nameMPCLINUX
JD of orbit computation2456966.885152
perihelion JD uncertainty (days)3.2228E-04
argument of perihelion uncertainty (°)1.1262E-04
ascending node uncertainty (°)4.7997E-05
inclination uncertainty (°)5.9065E-06
eccentricity uncertainty 8.0003E-08
perihelion distance uncertainty (AU)1.7930E-07
Minimum Orbit Intersection Distances (in AU)
for orbit epoch: 2460000.5, reference: E2023-M35
Mercury1.694
Venus1.39497
Earth1.11478
Mars0.49696
Jupiter2.83674
Saturn6.93733
Uranus16.2732
Neptune27.7394

Observations

297 total observations over interval: 1994 03 05.42218 – 2023 06 17.470542
These data are available for download (format description).

Date (UT) J2000 RA J2000 Dec Magn Location Ref
1994 03 05.42218 11 26 58.21 +04 25 47.8 19.9 V 691 – Steward Observatory, Kitt Peak-Spacewatch MPS 263482
1994 03 05.44567 11 26 56.64 +04 25 53.6   691 – Steward Observatory, Kitt Peak-Spacewatch MPS 263482
1994 03 05.46929 11 26 55.06 +04 26 00.3   691 – Steward Observatory, Kitt Peak-Spacewatch MPS 263482
2005 12 01.14314 04 54 50.69 +29 37 57.2 20.1 V 691 – Steward Observatory, Kitt Peak-Spacewatch MPS 154101
2005 12 01.16047 04 54 49.33 +29 37 56.4 20.4 V 691 – Steward Observatory, Kitt Peak-Spacewatch MPS 154101
2005 12 01.17783 04 54 47.98 +29 37 55.8 20.2 V 691 – Steward Observatory, Kitt Peak-Spacewatch MPS 154101
2005 12 05.12392 04 49 45.06 +29 32 58.0 20.2 V 691 – Steward Observatory, Kitt Peak-Spacewatch MPS 154101
2005 12 05.14656 04 49 43.30 +29 32 56.3 20.3 V 691 – Steward Observatory, Kitt Peak-Spacewatch MPS 154101
2005 12 05.16913 04 49 41.47 +29 32 54.4 20.3 V 691 – Steward Observatory, Kitt Peak-Spacewatch MPS 154101
2008 10 22.25958 03 23 29.61 +23 57 49.3 20.6 V 691 – Steward Observatory, Kitt Peak-Spacewatch MPS 263482
2008 10 22.27725 03 23 28.62 +23 57 49.2 20.4 V 691 – Steward Observatory, Kitt Peak-Spacewatch MPS 263482
2008 10 22.29492 03 23 27.65 +23 57 49.0 20.3 V 691 – Steward Observatory, Kitt Peak-Spacewatch MPS 263482
2008 10 26.21404 03 19 44.64 +23 55 19.3 20.1 V 691 – Steward Observatory, Kitt Peak-Spacewatch MPS 263482
2008 10 26.23175 03 19 43.53 +23 55 18.3 20.2 V 691 – Steward Observatory, Kitt Peak-Spacewatch MPS 263482
2008 10 26.24946 03 19 42.44 +23 55 17.6 20.3 V 691 – Steward Observatory, Kitt Peak-Spacewatch MPS 263482
2008 10 30.22437 03 15 32.44 +23 50 04.0 20.2 V 691 – Steward Observatory, Kitt Peak-Spacewatch MPS 263482
2008 10 30.24209 03 15 31.25 +23 50 02.6 20.1 V 691 – Steward Observatory, Kitt Peak-Spacewatch MPS 263482
2008 10 30.25980 03 15 30.11 +23 49 59.5 19.8 V 691 – Steward Observatory, Kitt Peak-Spacewatch MPS 263482
2008 10 30.575092 03 15 08.815 +23 49 29.74 20.24 g F51 – Pan-STARRS 1, Haleakala MPS 288696
2008 10 30.586365 03 15 08.045 +23 49 28.43 20.53 g F51 – Pan-STARRS 1, Haleakala MPS 288696
2008 11 09.21686 03 03 59.56 +23 25 44.2 20.1 V 691 – Steward Observatory, Kitt Peak-Spacewatch MPS 264702
2008 11 09.23450 03 03 58.23 +23 25 41.3 19.9 V 691 – Steward Observatory, Kitt Peak-Spacewatch MPS 264702
2008 11 09.25214 03 03 56.93 +23 25 37.7 19.8 V 691 – Steward Observatory, Kitt Peak-Spacewatch MPS 264702
2010 03 25.40164 14 30 19.87 -18 19 48.4 20.8 V G96 – Mt. Lemmon Survey MPS 319406
2010 03 25.40817 14 30 19.69 -18 19 48.0 21.1 V G96 – Mt. Lemmon Survey MPS 319406
2010 03 25.41484 14 30 19.44 -18 19 49.2 21.1 V G96 – Mt. Lemmon Survey MPS 319406
2010 03 25.42149 14 30 19.18 -18 19 49.4 20.9 V G96 – Mt. Lemmon Survey MPS 319406
2010 04 12.474649 14 16 09.170 -18 03 51.95 20.31 r F51 – Pan-STARRS 1, Haleakala MPS 337420
2010 04 12.483435 14 16 08.622 -18 03 50.94 20.34 r F51 – Pan-STARRS 1, Haleakala MPS 337420
2010 04 17.506425 14 10 53.327 -17 50 09.49 20.66 g F51 – Pan-STARRS 1, Haleakala MPS 337420
2010 04 17.516497 14 10 52.654 -17 50 07.35 21.00 g F51 – Pan-STARRS 1, Haleakala MPS 337420
2011 09 26.30221 01 47 28.41 +14 00 20.0 20.3 V 691 – Steward Observatory, Kitt Peak-Spacewatch MPS 392739
2011 09 26.31997 01 47 27.52 +14 00 18.3 20.4 V 691 – Steward Observatory, Kitt Peak-Spacewatch MPS 392739
2011 09 26.33773 01 47 26.68 +14 00 17.1 20.4 V 691 – Steward Observatory, Kitt Peak-Spacewatch MPS 392739
2011 09 30.30760 01 44 08.09 +13 53 54.3 20.4 V 691 – Steward Observatory, Kitt Peak-Spacewatch MPS 392739
2011 09 30.32539 01 44 07.07 +13 53 51.9 20.4 V 691 – Steward Observatory, Kitt Peak-Spacewatch MPS 392739
2011 09 30.34316 01 44 06.08 +13 53 49.4 20.6 V 691 – Steward Observatory, Kitt Peak-Spacewatch MPS 392739
2011 10 03.81683 01 40 52.81 +13 46 03.3 20.4 R D29 – Purple Mountain Observatory, XuYi Station MPS 395098
2011 10 03.84478 01 40 51.18 +13 45 58.3 19.9 R D29 – Purple Mountain Observatory, XuYi Station MPS 395098
2011 10 03.85879 01 40 50.32 +13 45 55.5 20.4 R D29 – Purple Mountain Observatory, XuYi Station MPS 395098
2011 10 18.29960 01 25 34.14 +12 55 56.0 19.8 V G96 – Mt. Lemmon Survey MPS 395098
2011 10 18.30647 01 25 33.63 +12 55 54.2 19.3 V G96 – Mt. Lemmon Survey MPS 395098
2011 10 18.31336 01 25 33.20 +12 55 52.5 19.6 V G96 – Mt. Lemmon Survey MPS 395098
2011 10 18.32020 01 25 32.73 +12 55 50.8 19.8 V G96 – Mt. Lemmon Survey MPS 395098
2011 10 21.31204 01 22 16.813 +12 43 03.57 20.1 w F51 – Pan-STARRS 1, Haleakala MPS 396408
2011 10 21.31270 01 22 16.752 +12 43 03.85 20.3 w F51 – Pan-STARRS 1, Haleakala MPS 396408
2011 10 21.32587 01 22 15.887 +12 43 00.10 20.2 w F51 – Pan-STARRS 1, Haleakala MPS 396408
2011 10 21.32653 01 22 15.812 +12 43 00.16 20.2 w F51 – Pan-STARRS 1, Haleakala MPS 396408
2011 10 21.33971 01 22 14.942 +12 42 56.46 20.2 w F51 – Pan-STARRS 1, Haleakala MPS 396408
2011 10 21.34037 01 22 14.880 +12 42 56.62 20.1 w F51 – Pan-STARRS 1, Haleakala MPS 396408
2011 10 21.35356 01 22 13.992 +12 42 53.04 20.2 w F51 – Pan-STARRS 1, Haleakala MPS 396408
2011 10 21.35422 01 22 13.939 +12 42 53.01 20.2 w F51 – Pan-STARRS 1, Haleakala MPS 396408
2013 03 13.47670 12 56 20.912 -07 29 08.04 20.3 w F51 – Pan-STARRS 1, Haleakala MPS 460470
2013 03 13.49094 12 56 20.151 -07 29 05.78 20.4 w F51 – Pan-STARRS 1, Haleakala MPS 460470
2013 03 13.50517 12 56 19.398 -07 29 03.78 20.3 w F51 – Pan-STARRS 1, Haleakala MPS 460470
2013 03 13.51945 12 56 18.643 -07 29 01.36 20.4 w F51 – Pan-STARRS 1, Haleakala MPS 460470
2013 03 23.26304 12 47 07.71 -06 57 25.2 20.2 V 691 – Steward Observatory, Kitt Peak-Spacewatch MPS 461592
2013 03 23.28069 12 47 06.64 -06 57 20.1 20.5 V 691 – Steward Observatory, Kitt Peak-Spacewatch MPS 461592
2013 03 23.29833 12 47 05.50 -06 57 16.4 20.3 V 691 – Steward Observatory, Kitt Peak-Spacewatch MPS 461592
2013 03 31.31255 12 38 36.67 -06 23 47.6 19.7 V G96 – Mt. Lemmon Survey MPS 462606
2013 03 31.32030 12 38 36.16 -06 23 45.4 19.7 V G96 – Mt. Lemmon Survey MPS 462606
2013 03 31.32810 12 38 35.59 -06 23 43.5 19.6 V G96 – Mt. Lemmon Survey MPS 462606
2013 03 31.33593 12 38 35.08 -06 23 41.2 19.6 V G96 – Mt. Lemmon Survey MPS 462606
2013 04 07.26707 12 31 11.74 -05 52 23.1 19.9 V G96 – Mt. Lemmon Survey MPS 463939
2013 04 07.27240 12 31 11.38 -05 52 21.4 19.9 V G96 – Mt. Lemmon Survey MPS 463939
2013 04 07.27773 12 31 11.06 -05 52 20.2 19.9 V G96 – Mt. Lemmon Survey MPS 463939
2013 04 07.28310 12 31 10.70 -05 52 18.8 19.9 V G96 – Mt. Lemmon Survey MPS 463939
2013 04 08.38315 12 30 02.271 -05 47 19.25 20.0 w F51 – Pan-STARRS 1, Haleakala MPS 463939
2013 04 08.39671 12 30 01.386 -05 47 15.63 20.2 w F51 – Pan-STARRS 1, Haleakala MPS 463939
2013 04 08.41024 12 30 00.506 -05 47 12.00 20.1 w F51 – Pan-STARRS 1, Haleakala MPS 463939
2013 04 08.42377 12 29 59.643 -05 47 08.41 20.1 w F51 – Pan-STARRS 1, Haleakala MPS 463939
2013 04 10.40328 12 27 58.667 -05 38 17.05 20.6 g F51 – Pan-STARRS 1, Haleakala MPS 463939
2013 04 10.41426 12 27 57.990 -05 38 14.27 20.6 g F51 – Pan-STARRS 1, Haleakala MPS 463939
2013 04 15.19480 12 23 21.37 -05 17 42.7 20.0 V G96 – Mt. Lemmon Survey MPS 464934
2013 04 15.20077 12 23 21.01 -05 17 40.6 21.2 V G96 – Mt. Lemmon Survey MPS 464934
2013 04 15.20674 12 23 20.68 -05 17 39.8 20.4 V G96 – Mt. Lemmon Survey MPS 464934
2013 04 15.21271 12 23 20.32 -05 17 38.3 20.6 V G96 – Mt. Lemmon Survey MPS 464934
2013 04 19.41120 12 19 40.169 -05 01 04.96 20.1 i F51 – Pan-STARRS 1, Haleakala MPS 464934
2013 04 19.42345 12 19 39.531 -05 01 02.10 20.4 i F51 – Pan-STARRS 1, Haleakala MPS 464934
2013 04 19.43586 12 19 38.890 -05 00 59.28 20.4 r F51 – Pan-STARRS 1, Haleakala MPS 464934
2014 04 29.40753 22 39 31.48 -10 53 50.1 22.9 V W84 – Cerro Tololo-DECam MPS 789552
2014 04 29.41070 22 39 31.79 -10 53 48.2   W84 – Cerro Tololo-DECam MPS 789552
2014 04 29.41387 22 39 32.12 -10 53 46.3   W84 – Cerro Tololo-DECam MPS 789552
2014 04 29.41713 22 39 32.46 -10 53 44.1   W84 – Cerro Tololo-DECam MPS 789552
2014 04 29.42039 22 39 32.77 -10 53 42.2   W84 – Cerro Tololo-DECam MPS 789552
2014 07 27.55802 00 24 32.007 +01 15 55.29 21.4 w F51 – Pan-STARRS 1, Haleakala MPS 525288
